Location: Desert Center
(33.7130°N, 115.4010°W)
Time: 14:06:44
(UTC-08:00)

N. Korean satellite - Visible Passes

Search period start: 01 December 2021 00:00
Search period end: 11 December 2021 00:00
Orbit: 447 x 495 km, 97.3° (Epoch: 01 December)

Date Brightness Start Highest point End Pass type
(mag) Time Alt. Az. Time Alt. Az. Time Alt. Az.
01 Dec 7.4 04:37:17 10° NNE 04:40:34 48° E 04:43:48 10° S visible
02 Dec 9.3 04:09:35 10° NE 04:11:59 18° E 04:14:22 10° SE visible
02 Dec 7.9 05:42:46 10° NNW 05:45:01 17° WNW 05:47:15 10° WSW visible
03 Dec 6.7 05:13:27 10° N 05:16:40 42° WNW 05:19:52 10° SSW visible
03 Dec 10.1 17:18:40 10° WSW 17:19:55 11° W 17:21:09 10° WNW visible
04 Dec 6.7 04:44:51 10° NNE 04:48:12 65° E 04:51:33 10° S visible
05 Dec 8.8 04:16:52 10° NE 04:19:37 23° E 04:22:22 10° SSE visible
05 Dec 8.2 05:50:51 10° NW 05:52:34 13° WNW 05:54:16 10° W visible
06 Dec 7.1 05:21:09 10° N 05:24:12 32° WNW 05:27:15 10° SW visible
07 Dec 6.3 04:52:21 10° NNE 04:55:44 87° E 04:59:07 10° S visible
08 Dec 8.3 04:24:08 10° NE 04:27:09 30° E 04:30:10 10° SSE visible
08 Dec 8.4 05:59:14 10° NW 06:00:00 11° WNW 06:00:45 10° W visible
09 Dec 9.8 03:57:06 10° ENE 03:58:28 12° E 03:59:50 10° ESE visible
09 Dec 7.4 05:28:48 10° NNW 05:31:39 25° WNW 05:34:29 10° SW visible
10 Dec 6.2 05:00:11 13° N 05:03:10 71° WNW 05:06:32 10° SSW visible
10 Dec 9.6 17:03:57 10° SW 17:06:18 17° W 17:08:39 10° NW visible
